Glenwood, MN

9:06 PM CDT on June 22, 2017 (GMT -0500)
Glenwood Municipal

Weather History for KGHW - June, 2012

Change the Weather History Date:

Thursday, June 28, 2012

  Actual Average Record
Temperature  
Mean Temperature 71 °F -  
Max Temperature 82 °F 80 °F 96 °F (1961)
Min Temperature 60 °F 56 °F 41 °F (1993)
Cooling Degree Days 6    
Growing Degree Days 21 (Base 50)    
Moisture  
Dew Point 49 °F    
Average Humidity 45    
Maximum Humidity 77    
Minimum Humidity 24    
Precipitation  
Precipitation 0.00 in - - ()
Sea Level Pressure  
Sea Level Pressure 29.94 in    
Wind  
Wind Speed 7 mph (WNW)    
Max Wind Speed 14 mph    
Max Gust Speed 16 mph    
Visibility 10 miles    
Events      
Averages and records for this station are not official NWS values.
T = Trace of Precipitation, MM = Missing Value Source: NWS Daily Summary

Daily Weather History Graph

Daily Weather History Graph

Search for Another Location

Airport or City:

Trip Planner

Search our weather history database for the weather conditions in past years. The results will help you decide how hot, cold, wet, or windy it might be!

Date:

Astronomy

Jun. 28, 2012 Rise Set
Actual Time 5:34 AM CDT 9:14 PM CDT
Civil Twilight 4:56 AM CDT 9:52 PM CDT
Nautical Twilight 4:05 AM CDT 10:43 PM CDT
Astronomical Twilight 2:56 AM CDT 11:52 PM CDT
Moon 3:41 PM CDT (6/28) 1:19 AM CDT (6/28)
Length of Visible Light 16h 55m
Length of Day
15h 40m
Waxing Gibbous, 67% of the Moon is Illuminated
Jun 28
Waxing Gibbous
Jul 3
Full
Jul 10
Last Quarter
Jul 18
New
Jul 26
First Quarter

Hourly Weather History & Observations

Time (CDT) Temp. Dew Point Humidity Pressure Visibility Wind Dir Wind Speed Gust Speed Precip Events Conditions
12:14 AM 73.4 °F 62.6 °F 69% 29.83 in 10.0 mi NNW 8.1 mph - N/A   Clear
12:34 AM 73.4 °F 59.0 °F 61% 29.84 in 10.0 mi NNW 8.1 mph - N/A   Clear
12:54 AM 71.6 °F 57.2 °F 60% 29.85 in 10.0 mi NNW 9.2 mph - N/A   Scattered Clouds
1:14 AM 71.6 °F 57.2 °F 60% 29.85 in 10.0 mi NNW 8.1 mph - N/A   Clear
1:34 AM 71.6 °F 53.6 °F 53% 29.85 in 10.0 mi NNW 10.4 mph - N/A   Clear
1:54 AM 69.8 °F 50.0 °F 49% 29.85 in 10.0 mi North 9.2 mph - N/A   Clear
2:14 AM 68.0 °F 48.2 °F 49% 29.85 in 10.0 mi North 8.1 mph - N/A   Clear
2:34 AM 66.2 °F 44.6 °F 46% 29.85 in 10.0 mi North 9.2 mph - N/A   Clear
2:54 AM 66.2 °F 44.6 °F 46% 29.84 in 10.0 mi North 9.2 mph - N/A   Clear
3:14 AM 66.2 °F 42.8 °F 43% 29.86 in 10.0 mi NNW 9.2 mph - N/A   Clear
3:34 AM 66.2 °F 42.8 °F 43% 29.87 in 10.0 mi NNW 8.1 mph - N/A   Clear
3:54 AM 66.2 °F 44.6 °F 46% 29.88 in 10.0 mi NNW 6.9 mph - N/A   Clear
4:14 AM 64.4 °F 44.6 °F 49% 29.89 in 10.0 mi NNW 8.1 mph - N/A   Clear
4:33 AM 64.4 °F 44.6 °F 49% 29.91 in 10.0 mi NNW 5.8 mph - N/A   Clear
4:54 AM 64.4 °F 46.4 °F 52% 29.92 in 10.0 mi NNW 4.6 mph - N/A   Clear
5:14 AM 60.8 °F 48.2 °F 63% 29.93 in 10.0 mi Calm Calm - N/A   Clear
5:34 AM 62.6 °F 46.4 °F 55% 29.95 in 10.0 mi Calm Calm - N/A   Clear
5:54 AM 62.6 °F 48.2 °F 59% 29.95 in 10.0 mi Calm Calm - N/A   Clear
6:14 AM 62.6 °F 48.2 °F 59% 29.94 in 10.0 mi NNW 3.5 mph - N/A   Clear
6:34 AM 62.6 °F 50.0 °F 63% 29.94 in 10.0 mi North 4.6 mph - N/A   Clear
7:14 AM 62.6 °F 51.8 °F 68% 29.94 in 10.0 mi North 4.6 mph - N/A   Clear
7:34 AM 64.4 °F 48.2 °F 56% 29.93 in 10.0 mi North 9.2 mph - N/A   Clear
7:54 AM 66.2 °F 48.2 °F 52% 29.92 in 10.0 mi NNW 10.4 mph - N/A   Clear
8:14 AM 66.2 °F 50.0 °F 56% 29.93 in 10.0 mi NNW 8.1 mph - N/A   Clear
8:34 AM 66.2 °F 50.0 °F 56% 29.93 in 10.0 mi NNW 6.9 mph - N/A   Clear
8:54 AM 68.0 °F 50.0 °F 52% 29.94 in 10.0 mi NW 3.5 mph - N/A   Clear
9:14 AM 71.6 °F 51.8 °F 50% 29.95 in 10.0 mi NW 4.6 mph - N/A   Clear
9:34 AM 73.4 °F 48.2 °F 41% 29.96 in 10.0 mi NW 6.9 mph - N/A   Clear
9:54 AM 75.2 °F 50.0 °F 41% 29.96 in 10.0 mi NW 6.9 mph - N/A   Clear
10:14 AM 75.2 °F 48.2 °F 38% 29.97 in 10.0 mi West 5.8 mph - N/A   Clear
10:34 AM 75.2 °F 46.4 °F 36% 29.97 in 10.0 mi West 4.6 mph - N/A   Clear
10:54 AM 77.0 °F 44.6 °F 32% 29.97 in 10.0 mi WNW 3.5 mph - N/A   Clear
11:14 AM 77.0 °F 44.6 °F 32% 29.97 in 10.0 mi NW 3.5 mph - N/A   Clear
11:34 AM 78.8 °F 44.6 °F 30% 29.98 in 10.0 mi Calm Calm - N/A   Clear
11:54 AM 80.6 °F 48.2 °F 32% 29.98 in 10.0 mi West 3.5 mph - N/A   Clear
12:14 PM 80.6 °F 42.8 °F 26% 29.98 in 10.0 mi NW 6.9 mph - N/A   Clear
12:33 PM 80.6 °F 42.8 °F 26% 29.99 in 10.0 mi WNW 6.9 mph - N/A   Clear
12:54 PM 80.6 °F 44.6 °F 28% 29.99 in 10.0 mi NW 8.1 mph - N/A   Clear
1:14 PM 80.6 °F 46.4 °F 30% 29.99 in 10.0 mi WNW 8.1 mph - N/A   Clear
1:33 PM 80.6 °F 44.6 °F 28% 30.00 in 10.0 mi NW 8.1 mph - N/A   Clear
1:54 PM 80.6 °F 42.8 °F 26% 30.00 in 10.0 mi WNW 13.8 mph - N/A   Clear
2:14 PM 80.6 °F 42.8 °F 26% 29.99 in 10.0 mi West 9.2 mph 16.1 mph N/A   Clear
2:33 PM 80.6 °F 41.0 °F 24% 30.00 in 10.0 mi WNW 10.4 mph - N/A   Clear
2:54 PM 82.4 °F 44.6 °F 26% 29.99 in 10.0 mi WNW 11.5 mph 16.1 mph N/A   Clear
3:13 PM 82.4 °F 44.6 °F 26% 29.99 in 10.0 mi West 10.4 mph - N/A   Clear
3:34 PM 82.4 °F 44.6 °F 26% 29.99 in 10.0 mi West 6.9 mph - N/A   Clear
3:54 PM 82.4 °F 44.6 °F 26% 29.99 in 10.0 mi West 10.4 mph - N/A   Clear
4:13 PM 82.4 °F 42.8 °F 25% 29.98 in 10.0 mi WNW 8.1 mph - N/A   Clear
4:34 PM 82.4 °F 46.4 °F 28% 29.98 in 10.0 mi West 8.1 mph - N/A   Clear
4:53 PM 82.4 °F 46.4 °F 28% 29.98 in 10.0 mi West 8.1 mph - N/A   Clear
5:14 PM 80.6 °F 48.2 °F 32% 29.97 in 10.0 mi West 8.1 mph - N/A   Clear
5:34 PM 80.6 °F 48.2 °F 32% 29.97 in 10.0 mi West 5.8 mph - N/A   Clear
5:53 PM 80.6 °F 46.4 °F 30% 29.96 in 10.0 mi West 8.1 mph - N/A   Clear
6:14 PM 80.6 °F 48.2 °F 32% 29.96 in 10.0 mi WSW 8.1 mph - N/A   Clear
6:33 PM 80.6 °F 46.4 °F 30% 29.95 in 7.0 mi WSW 9.2 mph - N/A   Clear
6:54 PM 80.6 °F 50.0 °F 34% 29.95 in 10.0 mi WSW 4.6 mph - N/A   Clear
7:13 PM 80.6 °F 50.0 °F 34% 29.95 in 10.0 mi WSW 6.9 mph - N/A   Clear
7:33 PM 78.8 °F 51.8 °F 39% 29.95 in 10.0 mi WSW 5.8 mph - N/A   Clear
7:54 PM 77.0 °F 55.4 °F 47% 29.95 in 10.0 mi SW 3.5 mph - N/A   Clear
8:13 PM 75.2 °F 57.2 °F 53% 29.94 in 10.0 mi SW 3.5 mph - N/A   Clear
8:34 PM 73.4 °F 57.2 °F 57% 29.94 in 10.0 mi Calm Calm - N/A   Clear
8:53 PM 73.4 °F 57.2 °F 57% 29.94 in 10.0 mi SSW 3.5 mph - N/A   Clear
9:14 PM 71.6 °F 57.2 °F 60% 29.94 in 10.0 mi Calm Calm - N/A   Clear
9:34 PM 71.6 °F 57.2 °F 60% 29.93 in 10.0 mi Calm Calm - N/A   Clear
9:53 PM 69.8 °F 55.4 °F 60% 29.94 in 7.0 mi SSW 3.5 mph - N/A   Clear
10:13 PM 66.2 °F 57.2 °F 73% 29.94 in 10.0 mi SSW 4.6 mph - N/A   Clear
10:33 PM 66.2 °F 57.2 °F 73% 29.94 in 10.0 mi SSW 4.6 mph - N/A   Clear
10:54 PM 64.4 °F 57.2 °F 77% 29.95 in 10.0 mi SW 4.6 mph - N/A   Clear
11:34 PM 64.4 °F 55.4 °F 73% 29.94 in 10.0 mi SW 6.9 mph - N/A   Clear
11:54 PM 64.4 °F 53.6 °F 68% 29.94 in 10.0 mi SW 5.8 mph - N/A   Clear